Theta_e
352 356 355 355 364 359 361 359 353 354 356 351 350 351 352 353 357 363 347 345 349 351 351 352 347 352 352 352 353 351 350 352 350 353 352 351 350 347 351 351 348 349 352 352 351 351 351 351 351
358 354 354 353 363 369 370 356 359 355 353 350 349 350 351 357 352 351 350 347 347 349 350 350 348 350 352 351 353 353 351 352 352 352 350 351 350 351 352 350 350 348 351 352 353 353 353 351 351
355 350 357 359 363 369 368 357 356 354 352 352 351 349 351 355 351 350 349 348 347 349 350 351 349 352 352 350 345 346 348 353 352 352 353 353 353 352 351 352 350 346 349 351 352 352 351 351 351
352 355 357 363 358 355 359 356 354 354 352 351 349 353 352 349 350 350 349 349 350 350 354 350 350 353 353 347 347 343 343 344 349 353 351 351 351 353 352 352 353 353 350 351 351 350 351 350 349
354 358 362 360 357 356 354 352 353 352 351 350 348 351 355 350 350 350 349 348 348 350 353 352 352 354 352 354 354 349 350 351 353 348 351 350 350 351 353 352 350 351 353 352 349 345 343 347 345
354 352 365 360 357 355 353 352 353 352 351 348 349 350 354 350 350 350 349 349 347 346 348 353 352 353 352 354 352 350 352 353 351 351 352 351 349 352 351 352 352 353 351 349 343 341 342 344 346
346 351 351 353 355 356 354 351 352 355 353 350 346 355 351 350 350 349 349 347 347 346 351 351 350 351 350 354 353 352 349 352 352 348 346 347 349 351 353 354 352 351 346 346 345 343 343 345 345
346 351 352 354 354 359 352 352 352 354 357 346 345 352 354 348 349 349 349 348 348 347 352 352 351 352 352 352 349 350 352 352 351 343 345 347 350 348 347 344 346 347 347 347 348 341 342 347 344
344 358 361 356 356 356 353 354 351 351 351 348 345 347 349 346 346 345 345 345 346 349 351 352 353 352 352 353 351 346 351 347 345 337 343 342 350 347 340 349 348 344 348 350 348 344 341 341 345
347 356 357 353 353 354 352 354 353 352 351 350 349 348 348 346 345 345 346 348 349 350 351 350 350 350 351 353 351 348 349 348 347 346 348 352 346 346 349 345 339 342 345 346 346 348 341 344 346
347 352 351 354 354 352 351 353 351 351 351 350 351 351 350 347 347 346 347 347 347 348 350 349 349 351 350 351 350 349 349 349 349 347 352 346 345 344 344 348 343 346 338 341 351 350 342 343 348
346 349 351 352 352 352 352 353 352 354 355 348 347 349 349 349 349 348 348 348 348 349 349 350 350 351 351 349 347 349 348 349 347 342 347 349 348 346 349 348 349 351 351 352 349 348 340 344 349
346 344 348 350 351 352 352 353 351 352 348 345 346 349 349 349 349 348 347 346 348 351 350 350 351 352 351 348 348 348 348 346 343 345 348 348 346 348 348 350 350 349 349 351 349 348 347 344 347
341 344 349 351 351 351 353 353 351 352 347 347 347 348 347 348 349 347 347 347 349 350 350 350 351 352 351 350 348 347 347 344 345 344 348 351 350 348 351 350 350 348 349 349 350 349 350 348 349
340 345 348 352 351 353 351 355 354 352 348 347 346 346 346 346 345 347 348 348 348 350 350 350 350 351 351 351 350 349 347 339 345 346 350 348 351 351 353 349 351 351 351 354 353 352 351 350 348
343 344 349 352 351 352 352 360 353 350 352 346 345 345 346 347 347 347 346 348 348 349 349 349 348 349 349 349 347 342 346 343 346 344 345 350 352 355 353 351 353 353 352 350 351 352 351 350 348
342 343 344 347 351 352 354 356 352 349 348 347 346 345 346 348 347 346 347 347 347 348 349 349 348 347 348 346 347 347 337 345 346 346 345 351 351 352 353 352 354 348 351 350 352 351 352 351 350
339 338 343 347 353 352 354 356 354 351 350 347 345 345 347 349 348 348 347 347 347 347 348 349 348 347 347 347 348 345 344 344 347 346 346 352 350 350 352 349 353 352 351 351 353 352 353 350 352
337 339 342 346 348 352 353 352 353 351 352 349 346 346 345 347 347 347 347 347 347 346 348 349 348 348 348 347 347 346 343 343 345 344 349 351 350 351 353 350 353 351 349 351 352 353 354 351 349
336 340 343 349 348 352 352 353 351 351 352 350 350 347 345 346 350 348 348 348 347 347 348 349 350 350 349 347 346 346 345 344 345 345 349 350 352 351 351 350 349 348 348 351 351 353 350 349 349
337 339 341 343 345 347 354 354 352 350 350 350 349 349 347 348 349 348 349 348 348 348 349 350 352 351 350 348 346 347 348 352 350 347 351 350 353 353 354 354 354 355 353 350 355 353 355 353 351
334 337 338 341 343 357 354 358 350 349 351 351 351 350 349 347 347 350 348 349 349 348 349 350 353 352 352 348 346 349 349 346 349 350 350 349 350 352 353 355 354 354 353 352 351 352 354 355 352
333 336 338 338 339 345 348 349 352 346 349 351 351 350 349 347 347 350 348 348 349 348 348 350 352 352 351 348 350 349 349 348 349 349 352 352 353 354 352 352 353 352 352 354 355 355 356 355 351
332 338 340 339 340 355 341 344 347 348 343 347 347 349 350 347 347 347 347 348 349 348 347 348 352 351 352 350 350 350 349 348 349 348 348 349 350 349 352 353 355 354 353 354 353 355 355 356 356
333 336 341 341 346 356 343 339 341 342 342 345 347 348 349 348 347 347 348 348 349 349 347 347 351 353 352 352 351 352 351 348 350 351 350 349 349 349 352 355 354 354 354 354 353 355 355 356 355
336 333 335 341 336 338 339 343 339 342 341 345 346 348 349 348 348 347 349 348 349 349 349 346 350 352 352 352 351 351 352 348 348 350 348 348 346 348 350 355 355 355 354 353 353 353 354 353 355
332 334 332 332 331 332 337 341 343 343 343 344 345 348 349 349 348 348 349 348 350 350 350 348 349 352 353 352 351 351 350 347 347 348 347 348 349 349 351 354 352 354 354 354 353 354 353 353 355
331 331 332 332 331 336 339 340 346 349 345 344 345 348 349 348 348 349 350 350 349 349 350 350 349 352 352 351 352 352 353 350 348 348 348 346 346 346 350 354 354 353 354 355 354 353 354 355 353
330 330 330 330 331 332 337 341 337 343 344 344 345 345 348 348 348 349 350 350 349 348 350 351 351 351 351 352 351 352 352 351 351 348 348 349 349 347 346 353 354 354 353 353 354 354 354 355 355
330 332 331 331 333 331 331 339 336 337 341 343 343 345 345 346 347 349 349 350 350 350 351 352 351 352 351 349 351 352 352 352 352 351 348 349 349 349 349 351 355 354 352 354 354 355 353 354 355
Wind_Speed
5 5 7 6 5 4 2 2 5 10 8 12 6 11 12 12 12 6 22 17 16 19 18 16 14 14 15 16 15 15 15 13 13 11 8 7 6 5 5 6 5 6 6 7 9 7 7 7 8
9 5 6 5 5 1 4 5 11 10 10 12 8 6 10 15 11 15 16 17 19 18 16 15 16 14 15 15 15 14 13 12 11 9 8 6 6 6 6 5 4 5 7 8 9 9 8 8 8
5 6 7 5 6 3 1 8 10 10 5 4 6 6 7 10 6 12 23 22 19 16 18 17 16 14 14 13 13 12 12 10 9 8 6 6 6 6 6 5 5 5 6 7 8 8 8 8 8
5 6 5 5 10 4 4 4 11 10 8 3 1 12 10 10 6 18 23 23 18 18 19 16 14 13 13 12 13 12 11 10 9 7 7 7 6 6 6 6 6 5 5 6 7 7 7 8 8
9 6 5 4 7 3 6 6 2 2 5 8 4 11 10 6 11 20 25 22 20 19 16 15 14 12 13 12 12 10 10 9 10 8 7 7 5 6 7 6 6 5 6 5 5 5 6 7 6
6 4 4 8 3 4 5 2 3 3 4 6 5 10 11 10 17 21 22 20 17 15 18 15 13 12 12 10 10 9 9 9 8 8 8 8 5 6 7 6 5 5 5 4 3 3 3 5 5
5 9 5 7 3 4 2 1 2 7 9 6 1 16 9 13 19 17 21 16 14 13 22 14 13 11 11 9 9 8 8 9 9 9 9 7 6 6 6 6 5 4 3 2 1 2 3 3 3
6 7 5 5 6 2 4 3 1 4 10 9 5 4 14 15 21 21 21 21 19 11 13 13 14 12 12 9 10 9 9 10 10 9 7 7 7 6 5 4 4 4 2 1 0 2 2 2 5
7 6 6 9 9 0 3 6 4 4 7 3 4 8 20 22 19 18 16 15 14 8 12 16 14 11 10 10 9 10 10 10 12 11 7 5 9 5 3 6 3 2 2 1 2 5 7 8 9
8 5 7 6 9 4 6 6 9 7 7 7 8 8 19 21 20 18 16 18 16 14 12 13 13 11 12 10 11 10 11 9 9 6 6 9 3 3 7 4 5 5 4 3 3 6 11 11 9
8 7 10 8 7 9 5 4 2 5 6 7 12 13 17 19 17 15 18 15 16 19 14 16 7 10 9 13 13 12 10 12 8 10 7 2 5 5 6 7 5 5 3 3 3 4 9 11 11
6 2 4 6 3 3 3 7 4 6 3 12 9 15 17 16 14 15 16 20 13 11 13 12 9 9 7 8 11 11 13 9 8 7 10 6 7 3 3 4 6 4 6 4 5 7 9 9 11
3 11 4 2 1 4 2 3 2 5 10 9 11 14 15 16 17 19 12 16 16 17 13 15 11 10 9 9 10 12 10 9 11 9 6 4 7 5 3 1 2 3 3 2 3 5 9 7 7
9 11 1 2 3 4 7 5 10 14 6 10 11 13 13 14 24 14 12 14 17 14 15 14 12 12 9 8 9 11 11 7 8 9 7 2 5 3 5 4 4 2 2 2 2 3 6 5 6
8 11 5 8 4 4 6 8 13 8 7 11 12 11 11 10 11 18 24 18 13 15 16 12 14 12 11 9 9 10 5 11 8 7 6 7 6 3 5 4 3 5 4 1 2 2 4 5 4
8 10 2 9 5 5 9 7 13 3 10 11 13 11 10 8 13 14 11 17 14 17 16 17 15 15 14 11 12 11 8 13 10 7 9 9 6 4 5 8 5 5 1 1 3 3 8 4 3
9 4 7 1 7 5 10 4 11 11 14 14 13 14 12 10 8 9 14 12 11 16 18 17 12 16 14 12 13 9 9 11 8 8 7 10 7 6 9 11 3 7 4 3 2 3 10 7 4
7 10 6 9 8 6 8 8 18 15 20 13 14 13 14 16 12 16 12 15 20 17 20 18 15 16 15 14 11 12 14 11 10 8 8 7 9 8 8 10 1 3 7 1 2 4 7 5 6
8 11 6 10 2 5 9 8 14 17 17 15 15 16 16 17 16 16 14 15 19 22 20 18 18 15 16 18 15 15 12 12 11 9 5 4 5 5 7 9 3 4 7 2 5 5 6 11 1
9 13 0 5 3 7 9 11 12 15 17 17 18 16 13 11 16 17 17 16 15 18 23 22 19 16 17 17 15 16 13 12 11 11 10 8 6 7 9 9 4 6 9 4 5 6 10 7 3
12 14 6 1 5 10 13 11 11 15 15 17 17 19 18 17 17 16 13 18 17 17 18 22 19 19 19 16 15 12 10 5 10 11 9 10 9 9 8 6 7 3 5 8 4 7 8 8 4
13 6 5 5 10 3 25 2 14 11 15 18 19 18 19 17 15 16 19 20 19 18 18 19 23 21 20 17 18 17 14 14 11 12 11 7 10 10 9 7 7 5 7 8 5 7 6 6 10
8 2 10 7 12 8 8 6 7 14 13 14 15 21 20 19 19 18 17 21 20 17 19 20 21 23 21 21 16 17 15 15 13 10 4 8 6 9 10 8 8 7 8 2 5 4 6 8 9
9 12 17 16 9 5 5 13 10 7 5 1 5 13 20 19 20 16 19 20 19 18 17 19 21 22 21 21 18 17 16 14 12 14 10 11 13 15 15 11 9 7 8 8 8 8 8 8 6
10 18 7 7 8 5 16 10 3 2 3 3 4 8 14 19 15 17 18 18 19 19 17 18 20 23 22 22 21 19 16 15 10 10 14 11 13 14 14 11 10 11 9 7 7 7 7 8 7
12 13 6 11 9 2 13 5 5 6 3 4 2 8 13 16 15 15 16 19 20 20 19 17 20 21 23 23 22 20 17 17 17 15 15 15 12 9 5 9 8 11 10 8 8 9 9 12 8
16 7 14 13 12 8 6 9 7 4 5 5 8 11 13 15 16 17 17 19 21 20 20 18 19 20 22 23 22 20 19 20 18 16 15 13 10 9 7 3 7 10 10 10 9 10 9 9 9
13 15 12 8 4 10 3 8 5 11 8 8 9 13 14 15 16 15 14 16 18 20 20 19 18 20 20 22 22 23 21 21 20 16 16 14 14 13 10 7 10 12 11 12 12 12 11 9 10
9 12 12 16 11 7 7 5 5 9 9 8 10 12 15 16 15 14 13 17 20 20 21 21 20 19 20 21 22 21 22 22 21 21 20 18 17 15 15 14 13 13 13 13 13 13 12 11 11
7 15 12 6 10 9 10 6 13 8 9 9 9 12 13 15 16 14 12 18 18 19 20 20 20 20 20 20 21 22 22 22 22 22 21 20 20 19 19 17 16 16 16 15 15 15 17 15 14
Wind_Direction
206 233 270 258 257 213 161 33 159 95 78 75 71 50 71 47 26 91 128 136 136 125 135 129 135 124 124 121 118 120 120 119 124 131 131 114 109 107 101 92 91 87 98 108 107 103 98 101 102
266 298 249 265 255 89 349 128 68 70 76 91 97 148 84 68 66 121 128 145 143 139 143 135 135 136 126 121 124 124 123 125 128 133 129 119 115 107 102 99 105 102 102 101 104 106 107 105 108
284 294 271 297 312 62 259 83 83 92 124 141 105 26 24 77 104 130 130 144 141 160 142 139 139 138 133 130 130 133 131 129 132 137 131 124 119 115 109 110 113 110 107 103 99 101 103 106 104
281 201 263 272 29 343 82 200 108 134 119 40 109 96 99 71 107 125 143 142 138 150 131 142 141 143 140 138 133 125 127 129 133 139 133 133 123 125 125 122 118 115 113 106 101 98 102 109 111
238 253 219 75 85 187 146 83 80 82 104 122 279 88 81 98 124 140 147 149 150 147 126 141 148 148 145 142 136 127 133 132 133 125 130 139 131 134 133 128 115 114 107 106 108 111 113 116 117
258 256 268 80 105 152 166 122 291 108 95 97 160 124 73 126 125 148 151 145 152 147 143 146 154 153 149 148 135 136 136 135 132 134 146 139 151 141 128 132 127 125 121 119 120 107 100 112 130
310 305 7 342 77 208 168 160 2 55 241 144 102 93 121 154 137 159 146 148 129 162 130 148 163 161 156 151 141 142 143 142 140 141 140 144 147 143 140 140 139 136 141 133 113 50 79 111 143
292 275 293 24 8 22 195 153 297 87 287 79 293 152 157 148 152 170 153 157 156 165 131 150 162 165 164 156 157 151 145 144 148 136 153 158 158 159 153 151 161 162 173 163 293 317 281 193 198
263 275 347 19 10 317 127 203 176 264 201 66 78 26 137 149 160 158 161 143 138 142 164 179 162 167 166 155 162 157 149 155 158 167 161 181 183 166 195 161 148 188 180 274 307 303 289 262 246
289 27 347 5 321 354 185 147 161 200 152 141 118 106 128 157 165 164 167 154 165 173 190 193 167 172 151 159 159 161 161 161 166 152 171 220 190 139 92 169 226 218 226 241 271 282 285 288 271
354 357 349 357 357 302 263 146 225 208 211 261 145 149 151 164 155 172 163 175 184 168 164 162 164 145 156 169 165 164 170 172 174 176 195 197 177 159 203 179 173 205 223 245 259 276 298 278 287
285 1 334 356 350 262 156 187 238 94 232 260 108 150 161 165 161 185 187 171 160 160 185 177 181 156 170 179 172 181 183 180 169 175 161 154 219 140 249 65 162 163 216 219 252 260 290 301 320
330 338 4 18 137 247 259 163 280 284 167 96 123 150 169 159 166 190 196 154 173 170 196 165 157 170 184 175 186 179 189 172 175 170 194 193 246 152 184 120 267 142 218 206 242 262 302 297 300
348 306 54 226 148 226 228 202 207 162 164 126 145 160 169 174 162 181 155 163 180 180 197 172 177 176 174 171 170 185 205 179 178 176 165 229 258 178 209 191 215 213 226 273 270 254 308 290 299
295 291 219 204 203 217 204 238 225 256 174 157 159 170 166 173 165 171 170 180 194 186 187 179 171 173 177 173 182 183 202 180 195 170 143 188 244 202 278 211 238 239 136 213 248 244 265 266 277
265 252 254 182 175 181 233 303 201 168 162 196 172 170 169 163 172 161 175 167 190 178 185 174 188 174 171 176 171 189 188 189 204 185 187 187 216 244 244 235 222 127 190 294 235 239 228 252 259
190 300 346 64 177 202 206 232 153 182 197 210 194 169 165 169 193 171 167 181 175 175 185 169 196 174 162 174 182 179 188 220 199 204 207 171 211 226 260 260 169 95 236 192 312 303 274 214 297
341 315 329 298 162 200 235 200 204 184 208 197 199 183 167 192 183 181 189 169 174 174 181 174 192 172 170 171 196 189 178 213 210 202 204 154 220 222 251 274 26 2 263 208 30 309 320 303 247
297 294 318 301 114 265 247 256 173 181 210 195 217 195 197 170 189 188 189 179 169 171 179 186 187 176 179 173 189 201 197 207 207 219 189 187 247 226 226 264 194 238 273 305 323 281 277 288 274
257 260 112 194 212 232 254 248 226 201 201 215 201 216 210 180 162 182 193 188 190 179 179 183 187 185 190 190 192 197 203 200 228 219 191 220 218 226 227 246 282 261 291 232 259 276 288 253 256
238 280 163 271 253 237 287 263 269 213 199 200 219 209 214 182 188 192 201 193 193 185 192 184 184 191 192 192 194 195 204 202 190 215 211 217 222 226 227 218 259 312 262 253 199 243 250 298 242
275 293 279 262 272 108 256 244 294 179 198 199 204 214 215 201 210 166 203 191 192 186 192 194 184 189 193 195 190 185 206 205 209 211 203 232 212 212 210 231 234 247 264 286 252 237 263 259 285
306 263 287 260 266 259 356 332 229 255 192 185 211 201 217 197 211 182 205 180 190 188 186 194 189 187 196 195 211 190 220 196 201 210 177 218 220 220 230 228 243 233 244 242 278 260 239 250 284
299 253 234 235 262 65 260 260 84 198 7 314 185 206 195 218 191 190 198 172 186 182 189 189 186 192 193 193 209 205 199 240 195 191 208 215 220 214 209 232 223 234 248 244 257 231 229 245 292
238 255 240 258 214 223 221 229 111 357 38 338 276 187 191 188 187 183 175 176 184 177 188 188 188 189 198 198 200 205 213 222 233 204 204 214 248 211 191 202 225 234 229 245 257 229 245 229 249
218 280 296 292 322 151 190 198 75 18 89 97 134 155 166 179 176 183 171 176 186 184 188 191 185 195 198 202 204 204 206 213 219 214 233 216 226 244 180 181 223 236 242 235 236 240 230 220 229
256 223 285 300 264 238 127 77 40 117 98 131 134 152 166 177 170 183 175 185 185 186 187 191 185 195 200 200 201 203 205 217 217 229 218 236 240 255 252 248 227 231 234 233 235 241 230 254 232
261 292 288 214 260 248 73 285 112 292 146 126 147 161 165 175 176 180 174 185 187 186 186 193 188 192 198 201 202 208 211 214 222 226 226 230 236 233 251 228 223 227 233 236 235 248 244 231 239
182 229 240 279 299 309 241 69 40 107 134 149 155 157 164 171 179 179 176 183 185 187 188 192 191 189 196 200 200 207 211 215 218 222 225 228 233 235 238 238 235 236 234 234 237 244 255 244 238
293 279 213 222 220 260 300 162 246 130 130 147 148 154 163 168 173 179 179 178 184 189 190 194 197 196 198 199 201 204 210 214 217 221 226 226 230 232 232 234 232 230 236 235 228 241 252 230 239